Tracking 20753 objects as of 7-Jun-2020
HD Live streaming from Space Station
objects crossing your sky now
Track the most recent launched group of Starlink satellites

DELTA 1 DEB

Track DELTA 1 DEB now!
10-day predictions


NORAD ID: 42568
Int'l Code: 1972-058KB
Perigee: 820.6 km
Apogee: 862.9 km
Inclination: 98.9 °
Period: 101.6 minutes
Semi major axis: 7212 km
RCS: Unknown
Launch date: July 23, 1972
Source: United States (US)
Launch site: AIR FORCE WESTERN TEST RANGE (AFWTR)

Note: This is SATELLITE DEBRIS
aabbcc
Your satellite tracking list
Your tracking list is empty




NASA's NSSDC Master Catalog

Two Line Element Set (TLE):
1 42568U 72058KB  20158.18324410 +.00000073 +00000-0 +58313-4 0  9990
2 42568 098.8961 135.7015 0029360 038.8971 321.4308 14.17261296778615
Source of the keplerian elements: AFSPC